Вернуться в каталог

FENGYUN 1C DEB

АктивенSSO
NORAD 36734·DEBRIS·🇨🇳 China

Запущен May 10, 1999 с Taiyuan Satellite Launch Center

Loading…

Ближайшие Пролёты (ближайшие 24 часа)

TLE

СвежийSource: Space-Track

Эпоха: Sep 13, 2026, 21:41 UTC

1 36734U 99025EBG 26256.90410086  .00002139  00000-0  88160-3 0  9998
2 36734  99.0396 318.0427 0035825 147.8550 212.4824 14.27622328866582

Отслеживайте FENGYUN 1C DEB в реальном времени с AllMySat

Download on the App Store